Location: Beugnon
(47.6222°N, 3.7850°E)
Time: 06:06:40
(UTC+00:00)

Cosmos 1328 - Pass Details

Date: 09 April 2020
Orbit: 540 x 544 km, 82.5° (Epoch: 29 May)

Event Time Altitude Azimuth Distance (km) Brightness Sun altitude
Rises 19:05:03 0° 352° (N) 2,722 7.8 -7.0°
Reaches altitude 10° 19:07:14 10° 354° (N) 1,825 6.8 -7.4°
Maximum altitude 19:11:15 74° 80° (E) 572 3.8 -8.0°
Drops below altitude 10° 19:15:13 10° 166° (SSE) 1,809 6.1 -8.6°
Sets 19:17:22 0° 168° (SSE) 2,697 7.0 -9.0°
